This demonstration page uses our WeatherBlox Daily Observations layout. Learn more.

Left ArrowRight Arrow

39.08367, -84.50855

Hourly Observations for December 29, 2015

Temp ( °F °C ) Dew Point ( °F °C ) Humidity (%) Winds ( mph kmh ) Pressure ( in mb ) Visibility ( mi km ) Precip ( " mm )
12:53 am 00:53 Cloudy 54 12.2 48 8.9 80 80 SW 14 22 29.71 1006 10 16 0.00 0.00
1:53 am 01:53 Cloudy 53 11.7 47 8.3 80 80 SW 16 26 29.73 1007 10 16 0.00 0.00
2:53 am 02:53 Mostly Cloudy 51 10.6 45 7.2 80 80 WSW 17 28 29.77 1008 10 16 0.00 0.00
3:03 am 03:03 Cloudy 52 11 45 7 77 77 SW 18 30 29.80 1009 10 16 0.00 0.00
3:53 am 03:53 Cloudy 50 10 43 6.1 77 77 SW 13 20 29.79 1009 10 16 0.00 0.00
4:33 am 04:33 Cloudy 49 9.4 42 5.6 77 77 SW 12 19 29.83 1010 10 16 0.00 0.00
4:53 am 04:53 Cloudy 49 9.4 42 5.6 77 77 WSW 10 17 29.82 1010 10 16 0.00 0.00
5:20 am 05:20 Cloudy 48 9 41 5 76 76 WSW 15 24 29.85 1011 10 16 0.00 0.00
5:30 am 05:30 Cloudy 48 9 41 5 76 76 SW 14 22 29.85 1011 10 16 0.00 0.00
5:53 am 05:53 Cloudy 48 8.9 41 5 77 77 SW 12 19 29.84 1011 10 16 0.00 0.00
6:53 am 06:53 Cloudy 47 8.3 40 4.4 77 77 SW 14 22 29.88 1012 10 16 0.00 0.00
7:53 am 07:53 Cloudy 47 8.3 39 3.9 74 74 WSW 14 22 29.91 1013 10 16 0.00 0.00
8:53 am 08:53 Cloudy 47 8.3 39 3.9 74 74 SW 13 20 29.94 1014 10 16 0.00 0.00
9:53 am 09:53 Cloudy 47 8.3 39 3.9 74 74 SW 13 20 29.98 1015 10 16 0.00 0.00
10:53 am 10:53 Cloudy 45 7.2 39 3.9 80 80 WSW 14 22 30.02 1017 10 16 0.00 0.00
11:53 am 11:53 Cloudy 44 6.7 38 3.3 79 79 W 16 26 30.04 1017 10 16 0.00 0.00
12:53 pm 12:53 Cloudy 44 6.7 37 2.8 76 76 W 10 17 30.05 1018 10 16 0.00 0.00
1:53 pm 13:53 Cloudy 44 6.7 36 2.2 73 73 WSW 13 20 30.06 1018 10 16 0.00 0.00
2:53 pm 14:53 Cloudy 43 6.1 35 1.7 74 74 W 13 20 30.08 1019 10 16 0.00 0.00
3:53 pm 15:53 Cloudy 43 6.1 35 1.7 74 74 W 10 17 30.11 1020 10 16 0.00 0.00
4:53 pm 16:53 Cloudy 42 5.6 35 1.7 76 76 W 7 11 30.14 1021 10 16 0.00 0.00
5:53 pm 17:53 Cloudy 42 5.6 34 1.1 73 73 WSW 9 15 30.16 1022 10 16 0.00 0.00
6:53 pm 18:53 Cloudy 41 5 34 1.1 76 76 W 6 9 30.18 1022 10 16 0.00 0.00
7:53 pm 19:53 Cloudy 41 5 34 1.1 76 76 W 7 11 30.18 1022 10 16 0.00 0.00
8:53 pm 20:53 Cloudy 41 5 34 1.1 76 76 WSW 7 11 30.20 1023 10 16 0.00 0.00
9:53 pm 21:53 Cloudy 41 5 35 1.7 79 79 Calm 30.20 1023 10 16 0.00 0.00
10:53 pm 22:53 Cloudy 40 4.4 34 1.1 79 79 NNW 5 7 30.20 1023 10 16 0.00 0.00
11:53 pm 23:53 Cloudy 40 4.4 33 0.6 77 77 NNW 5 7 30.20 1023 10 16 0.00 0.00

Powered by AerisWeather